Location: Bogis-Bossey
(46.3500°N, 6.1667°E)
Time: 18:43:18
(UTC+00:00)

Resurs 01 Rocket - Pass Details

Date: 17 August 2022
Orbit: 634 x 643 km, 97.9° (Epoch: 01 October)

Event Time Altitude Azimuth Distance (km) Brightness Sun altitude
Exits shadow 19:50:17 10° 159° (SSE) 2,011 3.7 -11.4°
Maximum altitude 19:54:39 75° 75° (ENE) 667 1.6 -12.0°
Drops below altitude 10° 19:59:05 10° 350° (N) 2,036 4.9 -12.7°
Sets 20:01:18 0° 349° (N) 2,948 5.8 -13.0°
